Weather in Mashtaga

Azerbaijan     40°31′46″N   50°00′19″E
В апреле 2022 года жителям России запретили посещать сайт meteo.paraplan.net по решению Генеральной прокуратуры. Аудитория сайта уменьшилась в 10 раз. Владельцы сайта не видят смысла в поддержке погодного сервера в таких условиях. Сайт будет закрыт в октябре.
temp.,
°C
wind,
m/s
gust,
m/s
humid.,
%
clouds,
%
prec.,
mm/h
press.,
hPa
HPBL,
m
25 september, sun
sun2501:00+20nnw16187214 0.1 10131219
04:00+20nnw14166242 0.1 10151203
07:00+19n121463100 0.0 10171188
10:00+20n111359100 0.0 10201332
13:00+20n101155100 0.1 10211540
16:00+20n9952100 0.1 10211461
19:00+20n885481 0.0 10231313
22:00+20nne55521 0.0 10241157
26 september, mon
mon2601:00+20ne33550 0.0 1023995
04:00+20ene34594 0.0 1023990
07:00+20ese35611 0.0 1024705
10:00+22se545215 0.0 10241365
13:00+22se664646 0.0 10221399
16:00+23sse55470 0.0 10201199
19:00+22sse45491 0.0 1020738
22:00+22s34510 0.0 1020545
27 september, tue
tue2701:00+21ssw23540 0.0 1019474
04:00+21s23580 0.0 1017433
07:00+21s45612 0.0 1017481
10:00+23ssw57560 0.0 1017767
13:00+24s79510 0.0 1015833
16:00+25s89470 0.0 1013741
19:00+24s68510 0.0 1012569
22:00+23s68540 0.0 1012465
28 september, wed
wed2801:00+23ssw57600 0.0 1010495
04:00+22s57650 0.0 1009465
07:00+22s69700 0.0 1008518
10:00+24ssw89650 0.0 1008545
13:00+25s910580 0.0 1006569
16:00+26s89560 0.0 1004506
19:00+24s796814 0.0 1004410
22:00+24ssw56700 0.0 1005383
29 september, thu
thu2901:00+23w22725 0.0 1005232
04:00+22n576916 0.0 1005307
07:00+22nnw815807 0.0 1006611
10:00+23nnw121673100 0.0 1008776
13:00+24nnw1115610 0.0 1008867
16:00+24n1115660 0.0 1007848
19:00+23n1016700 0.0 1009862
22:00+22nnw101773100 0.0 1010834